Weather History for KMLI - February, 2012

Change the Weather History Date:

Saturday, February 11, 2012

  Actual Average Record
Temperature  
Mean Temperature 18 °F 26 °F  
Max Temperature 25 °F 34 °F 69 °F (1999)
Min Temperature 10 °F 17 °F -22 °F (2014)
Degree Days  
Heating Degree Days 47 39  
Month to date heating degree days 394 448  
Since 1 July heating degree days 3624 4182  
Cooling Degree Days 0 0  
Month to date cooling degree days 0 0  
Year to date cooling degree days 0 0  
Moisture  
Dew Point -1 °F    
Average Humidity 48    
Maximum Humidity 63    
Minimum Humidity 32    
Precipitation  
Precipitation 0.00 in 0.05 in 1.14 in (1998)
Month to date precipitation 0.26 0.51  
Year to date precipitation 0.96 2.00  
Snow  
Snow 0.00 in 0.30 in - ()
Month to date snowfall T 3.1  
Since 1 July snowfall 9.0 23.0  
Snow Depth 0.00 in    
Sea Level Pressure  
Sea Level Pressure 30.49 in    
Wind  
Wind Speed 18 mph (NW)    
Max Wind Speed 30 mph    
Max Gust Speed 40 mph    
Visibility 10 miles    
Events      
T = Trace of Precipitation, MM = Missing Value Source: NWS Daily Summary

Daily Weather History Graph

Daily Weather History Graph

Search for Another Location

Airport or City:

Trip Planner

Search our weather history database for the weather conditions in past years. The results will help you decide how hot, cold, wet, or windy it might be!

Date:

Astronomy

Feb. 11, 2012 Rise Set
Actual Time 7:02 AM CST 5:30 PM CST
Civil Twilight 6:34 AM CST 5:58 PM CST
Nautical Twilight 6:01 AM CST 6:31 PM CST
Astronomical Twilight 5:29 AM CST 7:03 PM CST
Moon 10:23 PM CST (2/11) 8:41 AM CST (2/11)
Length of Visible Light 11h 24m
Length of Day
10h 27m
Waning Gibbous, 82% of the Moon is Illuminated
Feb 11
Waning Gibbous
Feb 14
Last Quarter
Feb 21
New
Feb 29
First Quarter
Mar 8
Full

Hourly Weather History & Observations

Time (CST) Temp. Windchill Dew Point Humidity Pressure Visibility Wind Dir Wind Speed Gust Speed Precip Events Conditions
12:52 AM 15.1 °F -0.6 °F 3.0 °F 59% 30.40 in 10.0 mi NNW 16.1 mph 24.2 mph N/A   Clear
1:52 AM 14.0 °F 2.0 °F 1.0 °F 56% 30.42 in 10.0 mi NNW 9.2 mph 20.7 mph N/A   Clear
2:52 AM 12.9 °F -0.2 °F 1.0 °F 59% 30.43 in 10.0 mi NNW 10.4 mph 18.4 mph N/A   Clear
3:52 AM 12.0 °F -2.7 °F 1.0 °F 61% 30.44 in 10.0 mi NW 12.7 mph - N/A   Clear
4:52 AM 10.9 °F -4.7 °F -0.9 °F 59% 30.46 in 10.0 mi NW 13.8 mph - N/A   Clear
5:52 AM 10.9 °F -5.4 °F -2.0 °F 56% 30.48 in 10.0 mi NW 15.0 mph 20.7 mph N/A   Clear
6:52 AM 10.0 °F -5.9 °F -2.0 °F 58% 30.50 in 10.0 mi NW 13.8 mph - N/A   Clear
7:52 AM 10.9 °F -5.4 °F -2.0 °F 56% 30.52 in 10.0 mi NW 15.0 mph 23.0 mph N/A   Clear
8:52 AM 12.9 °F -5.7 °F -2.9 °F 49% 30.53 in 10.0 mi NW 21.9 mph 28.8 mph N/A   Clear
9:52 AM 16.0 °F -0.9 °F -2.9 °F 43% 30.54 in 10.0 mi NNW 19.6 mph 28.8 mph N/A   Clear
10:52 AM 19.9 °F 5.2 °F -2.0 °F 38% 30.54 in 10.0 mi NW 17.3 mph 24.2 mph N/A   Clear
11:52 AM 21.0 °F 5.0 °F -2.0 °F 36% 30.53 in 10.0 mi NW 21.9 mph 28.8 mph N/A   Clear
12:52 PM 21.9 °F 5.8 °F -2.0 °F 35% 30.51 in 10.0 mi WNW 23.0 mph 33.4 mph N/A   Clear
1:52 PM 23.0 °F 6.6 °F -0.9 °F 35% 30.50 in 10.0 mi WNW 25.3 mph 33.4 mph N/A   Clear
2:52 PM 24.1 °F 8.3 °F -2.0 °F 32% 30.50 in 10.0 mi NW 24.2 mph 36.8 mph N/A   Clear
3:52 PM 23.0 °F 6.9 °F -2.0 °F 34% 30.50 in 10.0 mi WNW 24.2 mph 38.0 mph N/A   Clear
4:52 PM 23.0 °F 8.7 °F -0.9 °F 35% 30.49 in 10.0 mi NW 18.4 mph 33.4 mph N/A   Clear
5:52 PM 21.9 °F 6.2 °F -2.0 °F 35% 30.50 in 10.0 mi NW 21.9 mph 31.1 mph N/A   Clear
6:52 PM 21.0 °F 6.6 °F -0.9 °F 38% 30.52 in 10.0 mi WNW 17.3 mph 28.8 mph N/A   Clear
7:52 PM 19.9 °F 4.3 °F -0.0 °F 42% 30.51 in 10.0 mi WNW 19.6 mph 27.6 mph N/A   Clear
8:52 PM 19.9 °F 5.7 °F -0.0 °F 42% 30.52 in 10.0 mi WNW 16.1 mph 26.5 mph N/A   Clear
9:52 PM 19.0 °F 4.5 °F -0.0 °F 43% 30.51 in 10.0 mi WNW 16.1 mph 23.0 mph N/A   Clear
10:52 PM 19.0 °F 5.6 °F -0.9 °F 42% 30.51 in 10.0 mi WNW 13.8 mph 23.0 mph N/A   Clear
11:52 PM 18.0 °F 2.6 °F -0.9 °F 44% 30.50 in 10.0 mi NW 17.3 mph - N/A   Clear